Simultaneous Nadir Overpasses (SNOs) Predictions

Prediction of SNOs between GOES-17 and METOP-C Satellite Orbit:

Table of predicted SNOs for the next 14.0 days since TLE Epoch: 12/13/2019
Index Date Time (GOES-17) GOES-17 Lat,Lon METOP-C Lat,Lon Distance(km) Time Diff (sec)
1 12/14/2019 06:35:36 -0.03,-137.21 0.27,-135.95 144.15 80
2 12/15/2019 18:51:29 0.03,-137.22 0.76,-140.43 365.63 80
3 12/16/2019 18:33:19 0.04,-137.22 -0.39,-135.39 209.22 80
4 12/18/2019 06:49:21 -0.04,-137.21 -0.67,-139.90 307.15 80
5 12/19/2019 06:31:10 -0.05,-137.21 0.48,-134.86 267.26 80
6 12/20/2019 18:47:04 0.05,-137.21 0.53,-139.34 243.50 80
7 12/21/2019 18:28:53 0.05,-137.20 -0.62,-134.31 330.66 80
8 12/23/2019 06:44:57 -0.05,-137.18 -0.40,-138.83 186.85 80
9 12/24/2019 06:26:45 -0.05,-137.17 0.69,-133.78 386.81 80
10 12/25/2019 18:42:38 0.05,-137.16 0.30,-138.26 125.15 80
11 12/26/2019 18:24:28 0.06,-137.15 -0.84,-133.22 448.33 80




NCC Satellite Simultaneous Nadir Overpasses (SNOs) Prediction Service
